STARLINK-4726, 53802

Orbit data source: Space-Track

STARLINK-4726, 53802 is a payload satellite owned by SpaceX/Seattle (US) in LEO that was launched on Sun, 11 Sep 2022 UTC via an FALCON 9 launch vehicle from the Air Force Eastern Test Range (AFETR). Payload-class satellites include a variety of spacecraft equipped with specific instruments for various scientific and technological missions. These include communications satellites like Starlink; space stations such as the ISS; scientific satellites like the Hubble; Earth observation satellites from companies like Planet Labs, Umbra, and HawkEye 360; GPS; miniature CubeSats for education and research; and military/defense satellites.

Loading next visibility...
Identifier
53802, 2022-111AF
Orbit
LEO
Country
Flag of USUS
Related business
Manufacturer
SpaceX/Seattle
Mission
Operational Commercial Communications
Bus & Motor
STARLINK, Unknown motor
Mass
305 kg wet, ~290 kg dry
Launch date (UTC)
2022-09-11 (3 years ago)
Launch vehicle
FALCON 9
Launch site
Air Force Eastern Test Range (AFETR)
Object type
Payload
Rocket body
Debris
Shape & HBR
Box + 1 Pan, 10.1 m
Radar Cross Section
13.562 m², Large (>1 m²)

Expand to show TLE details & history
Last TLE update: 20 hours ago

TLE from 20 hours ago
0 STARLINK-4726
1 53802U 22111AF  26037.39369904  .00000934  00000-0  76744-4 0  9994
2 53802  53.2189  44.4800 0001502  97.1410 262.9753 15.08840191189096
Epoch: 2026-02-06T09:26Z
TLE epoch observation values (Epoch: 2026-02-06T09:26:55.597Z)
Latitude
-0°
Longitude
126.21613°
Altitude
540.768 km
Speed
7.593 km/s
True Right ascension
02h 57m 55s
True Declination
0° 00' 00"
Sunlit
Object was in daylight at epoch
Visualization orbit readout
Latitude
Unknown
Longitude
Unknown
Altitude
Unknown
Speed
Unknown
Apparent Right ascension
Unknown
Apparent Declination
Unknown
Sunlit
N/A
Visualization observer readout
Local Sidereal Time
07:59:07
Azimuth
Unknown
Elevation
Unknown
Doppler factor
Unknown
Orbital elements
Apogee altitude
541.027 km
Perigee altitude
538.948 km
Semi-major axis
6,918.125 km
Eccentricity
0.00015
Inclination
53.2189°
RAAN
44.48°
Arg. of periapsis
97.141°
True anomaly
262.95822°
Mean anomaly
262.9753°
Eccentric anomaly
262.96676°
Mean motion
3.7719 °/min
Orbital period
95.44 mins
BSTAR
0.000076744
Loading maneuver chart data...
Computing Atmospheric mass density...

Documentation

Showing up to 5 results
|